Regional Weather Roundup
Issued by NWS

Home | Current Version | Previous Version | Text Only | Print | Product List | Glossary On
Versions: 1 2 3 4 5 6 7 8 9 10 11 12 13 14 15 16 17 18 19 20 21 22 23 24 25 26 27 28 29 30 31 32 33 34 35 36 37 38 39 40 41 42 43 44 45 46 47 48 49 50
000
ASUS43 KMKX 250121
RWRWI

WISCONSIN REGIONAL WEATHER ROUNDUP
NATIONAL WEATHER SERVICE MILWAUKEE/SULLIVAN WI
700 PM CST FRI FEB 24 2017

NOTE: "FAIR" INDICATES FEW OR NO CLOUDS BELOW 12,000 FEET WITH NO
SIGNIFICANT WEATHER AND/OR OBSTRUCTIONS TO VISIBILITY.

WIZ001-002-006>008-014>016-023>028-250200-
NORTHWEST WISCONSIN

CITY           SKY/WX    TMP DP  RH WIND       PRES   REMARKS
SUPERIOR ARPT  CLOUDY    21   9  58 N8        29.91S WCI  12
ASHLAND        CLOUDY    19  10  68 N10       29.86F WCI   7
HAYWARD        CLOUDY    19   8  62 N12       29.82S WCI   7
SIREN          CLOUDY    22  10  60 N12G20    29.86R WCI  10
CUMBERLAND     CLOUDY    19  10  68 N10G21    29.81S WCI   8
RICE LAKE      LGT SNOW  19  11  70 N9        29.83R WCI   9
CHETEK         LGT SNOW  19  13  77 N7G17     29.81R WCI   9
LADYSMITH      LGT SNOW  18  13  80 N16G24    29.78S WCI   3
EAU CLAIRE     LGT SNOW  20  15  81 N13       29.79R WCI   7
MENOMONIE      LGT SNOW  20  16  81 NW16G24   29.82R WCI   6
NEW RICHMOND   CLOUDY    23  12  62 N15       29.84R WCI  10
OSCEOLA        CLOUDY    23  12  61 N17G23    29.89R WCI  10
$$

WIZ003>005-009-010-017-018-250200-
NORTH CENTRAL WISCONSIN

CITY           SKY/WX    TMP DP  RH WIND       PRES   REMARKS
MANITOWISH WTR LGT SNOW  16  14  93 N14G22    29.71R WCI   1
ARBOR VITAE    LGT SNOW  19  15  85 N12         N/A  WCI   7
WOODRUFF       LGT SNOW  19  15  85 N12         N/A  WCI   7
RHINELANDER    FLURRIES  19  13  77 N9G16     29.67S WCI   8
EAGLE RIVER    LGT SNOW  17  12  82 N14       29.66F WCI   3
LAND O LAKES   LGT SNOW  17  14  86 N9G20     29.69S WCI   6
PHILLIPS       LGT SNOW  17  13  88 N13G20    29.72S WCI   3
TOMAHAWK       LGT SNOW  18  13  82 N6        29.69S WCI  10
MEDFORD        LGT SNOW  18  14  83 N15G25    29.67S WCI   4
MERRILL        NOT AVBL
$$

WIZ029-030-035-036-043>047-250200-
CENTRAL WISCONSIN

CITY           SKY/WX    TMP DP  RH WIND       PRES   REMARKS
WAUSAU         FLURRIES  20  14  77 N8        29.65R WCI  10
MOSINEE        CLOUDY    21  18  86 N18G24    29.66R WCI   6
MARSHFIELD     LGT SNOW  20  15  81 N14       29.66R WCI   7
STEVENS POINT  CLOUDY    21  20  95 N12G17    29.65R FOG     WCI   9
WAUPACA        MIX PCPN  27  24  88 N8        29.63R WCI  19
WAUTOMA        LGT SNOW  26  24  92 NW9       29.64  FOG     WCI  17
WISC RAPIDS    LGT SNOW  23  20  88 N15       29.67R FOG     WCI  10
CAMP DOUGLAS   FRZ RAIN  25  21  86 NW8       29.68R WCI  16
$$

WIZ011>013-019>022-031-037>040-048>050-250200-
NORTHEAST WISCONSIN

CITY           SKY/WX    TMP DP  RH WIND       PRES   REMARKS
ANTIGO         CLOUDY    18  14  82 N21       29.63R WCI   2
SHAWANO        CLOUDY    26  23  88 N10       29.63S FOG     WCI  16
OCONTO         CLOUDY    24  22  91 N12G17    29.60S WCI  13
STURGEON BAY   MIX PCPN  26  25  96 MISG      29.56F FOG
GREEN BAY      FRZ RAIN  26  25  96 N17       29.59S FOG     WCI  13
MANITOWOC      FLURRIES  28  25  88 N18G24    29.54F WCI  15
APPLETON       CLOUDY    25  25 100 N12       29.57R WCI  14
CLINTONVILLE   MIX PCPN  27  23  86 N9        29.62S WCI  17
OSHKOSH        CLOUDY    26  23  88 N16       29.59R FOG     WCI  14
$$

WIZ032>034-041-042-053>061-250200-
SOUTHWEST WISCONSIN

CITY           SKY/WX    TMP DP  RH WIND       PRES   REMARKS
LA CROSSE      LGT SNOW  25  21  85 N21       29.74R FOG     WCI  11
SPARTA         LGT SNOW  25  22  89 N8        29.72R WCI  16
VIROQUA        CLOUDY    25  24  95 N9        29.67R WCI  15
BOSCOBEL       LGT SNOW  29  24  82 N7        29.69S WCI  22
PRAIRIE DU CHI LGT SNOW  28  26  89 N12       29.71R WCI  18
PLATTEVILLE    CLOUDY    29  29 100 N8        29.65R WCI  21
$$

WIZ056-057-062-063-064-067-068-250200-
SOUTH CENTRAL WISCONSIN

CITY           SKY/WX    TMP DP  RH WIND       PRES   REMARKS
REEDSBURG      CLOUDY    26  25  96 N12       29.65R FOG     WCI  15
BARABOO/DELLS  MIX PCPN  26  25  95 N6        29.64R WCI  19
LONE ROCK      MIX PCPN  28  24  85 N12G24    29.67R FOG     WCI  18
MINERAL POINT  CLOUDY    30  30 100 CALM      29.63R
MADISON        FRZ DRZL  27  25  92 N13       29.61R FOG     WCI  16
MIDDLETON      CLOUDY    29  28  96 N6        29.63R WCI  23
WATERTOWN      CLOUDY    28  28 100 NW8       29.58R FOG     WCI  20
MONROE         CLOUDY    28  28 100 N8        29.60R FOG     WCI  20
JANESVILLE     CLOUDY    30  30 100 N15G21    29.58R FOG     WCI  19
$$

WIZ051-052-058>065-066-070>072-250200-
SOUTHEAST WISCONSIN

CITY           SKY/WX    TMP DP  RH WIND       PRES   REMARKS
MILWAUKEE      DRIZZLE   33  30  88 NW13      29.54R FOG     WCI  24
WAUKESHA       CLOUDY    28  28 100 NW10      29.56R FOG     WCI  19
MILWAUKEE/TIMM MIX PCPN  30  28  93 NW8       29.56R WCI  23
RACINE         CLOUDY    33  31  92 NW9       29.55R FOG     WCI  25
KENOSHA        CLOUDY    34  32  92 NW7       29.54R FOG     WCI  28
FOND DU LAC    LGT SNOW  27  23  85 N15G24    29.59R FOG     WCI  15
SHEBOYGAN      CLOUDY    28  25  88 N16G23    29.54R FOG     WCI  16
WEST BEND      MIX PCPN  30  30 100 N3        29.55S
JUNEAU         LGT SNOW  26  25  94 N7        29.59R WCI  19
$$

LSZ147-162-250200-
LAKE SUPERIOR

STATION/POSITION TIME  TEMP    WIND        PRES    WAVE
                       AIR SEA DIR/SP/G            HT/PER
                 (UTC) (F)     (DEG/KT/KT) (MB)    (FT/S)
DEVILS ISLAND    0100   21     340/ 17/ 21 1012.5F
PORT WING        0040   23      10/ 16/ 20 1012.2S
SAXON HARBOR     0030   22      10/ 20/ 26 1010.5F
$$

LMZ867-665-643>646-250200-
LAKE MICHIGAN

STATION/POSITION TIME  TEMP    WIND        PRES    WAVE
                       AIR SEA DIR/SP/G            HT/PER
                 (UTC) (F)     (DEG/KT/KT) (MB)    (FT/S)
CHAMBERS ISLAND  0030   26     350/  4/  5 1002.0R
NORTHPORT PIER   0106   27      10/  4/  6 1002.4
SISTER BAY       0035   26        CALM       N/A
KEWAUNEE LAKESHO 0048   27     360/ 12/ 21 1000.5F
SHEBOYGAN LAKESH 0100   29     340/  8/ 10 1000.6R
PORT WASHINGTON  0040   31     330/  8/ 15 1001.7R
MILWAUKEE LAKESH 0100   32     310/  7/  9   N/A
KENOSHA   LAKESH 0100   34     310/  7/ 12 1000.3
$$

TC  - TEMPERATURE IN CELSIUS
VSB - VISIBILITY IN STATUTE MILES
WCI - WIND CHILL INDEX
HX  - HEAT INDEX





USA.gov is the U.S. government's official web portal to all federal, state and local government web resources and services.